User: anonymous   Login
Location: Brunembert
(50.7122°N, 1.8935°E)
Time: 02:31:02
(UTC+00:00)
Language:

ATLAS 2AS CENTAUR R/B - Orbit

View from above orbital plane
View from above orbital plane
View from above satellite
View from above satellite

Ground track
Ground track

The orbit data is extracted from the following two-line orbital elements,

1 28096U 03054B   21127.84491371 0.00000000  00000-0  00000-0 0    00
2 28096  63.6755  67.6529 0209577 218.8068 141.1932 13.40867191    08
Epoch (UTC): 07 May 2021 20:16:40
Eccentricity: 0.0209577
inclination: 63.6755°
perigee height: 949 km
apogee height: 1263 km
right ascension of ascending node: 67.6529°
argument of perigee: 218.8068°
revolutions per day: 13.40867191
mean anomaly at epoch: 141.1932°
orbit number at epoch: 0

The dashed part of the orbit path shows where the satellite is in the earth's shadow,  

DLR